Previsão horária em Almargen

Hoje, 15 Junho, Terça-feira

Tempo Temperatura Precipitação Vento Pressão Humidade
00:00 +20°C° 0 mm 0 m/s 709 mmHg 59%
01:00 +20°C° 0 mm 0 m/s 708 mmHg 61%
02:00 +19°C° 0 mm 0 m/s 708 mmHg 62%
03:00 +19°C° 0 mm 0 m/s 708 mmHg 64%
04:00 +19°C° 0 mm 0 m/s 708 mmHg 62%
05:00 +20°C° 0 mm 0 m/s 708 mmHg 60%
06:00 +20°C° 0 mm 0 m/s 708 mmHg 58%
07:00 +24°C° 0 mm 1 m/s 708 mmHg 52%
08:00 +26°C° 0 mm 1 m/s 708 mmHg 45%
09:00 +27°C° 0 mm 1 m/s 709 mmHg 39%
10:00 +29°C° 0 mm 2 m/s 708 mmHg 35%
11:00 +31°C° 0 mm 2 m/s 708 mmHg 31%
12:00 +33°C° 0 mm 3 m/s 708 mmHg 27%
13:00 +33°C° 0 mm 4 m/s 708 mmHg 26%
14:00 +34°C° 0 mm 4 m/s 708 mmHg 26%
15:00 +34°C° 0 mm 4 m/s 707 mmHg 25%
16:00 +32°C° 0 mm 4 m/s 707 mmHg 29%
17:00 +29°C° 0 mm 4 m/s 707 mmHg 33%
18:00 +28°C° 0 mm 3 m/s 707 mmHg 37%
19:00 +26°C° 0 mm 2 m/s 707 mmHg 42%
20:00 +24°C° 0 mm 2 m/s 707 mmHg 46%
21:00 +23°C° 0 mm 1 m/s 707 mmHg 51%
22:00 +22°C° 0 mm 1 m/s 707 mmHg 52%
23:00 +21°C° 0 mm 1 m/s 707 mmHg 54%

Amanhã, 16 Junho, Quarta-feira

Tempo Temperatura Precipitação Vento Pressão Humidade
00:00 +20°C° 0 mm 1 m/s 707 mmHg 55%
01:00 +20°C° 0 mm 1 m/s 706 mmHg 58%
02:00 +19°C° 0 mm 1 m/s 706 mmHg 61%
03:00 +19°C° 0 mm 1 m/s 706 mmHg 64%
04:00 +19°C° 0 mm 1 m/s 706 mmHg 64%
05:00 +19°C° 0 mm 1 m/s 706 mmHg 65%
06:00 +18°C° 0 mm 0 m/s 706 mmHg 65%
07:00 +21°C° 0 mm 1 m/s 706 mmHg 59%
08:00 +23°C° 0 mm 1 m/s 707 mmHg 53%
09:00 +25°C° 0 mm 1 m/s 707 mmHg 48%
10:00 +27°C° 0 mm 2 m/s 707 mmHg 43%
11:00 +28°C° 0 mm 3 m/s 707 mmHg 38%
12:00 +30°C° 0 mm 4 m/s 706 mmHg 33%
13:00 +30°C° 0 mm 4 m/s 706 mmHg 32%
14:00 +32°C° 0 mm 4 m/s 705 mmHg 31%
15:00 +32°C° 0 mm 5 m/s 705 mmHg 31%
16:00 +29°C° 0.1 mm 5 m/s 705 mmHg 35%
17:00 +27°C° 0.1 mm 4 m/s 705 mmHg 40%
18:00 +26°C° 0.1 mm 4 m/s 705 mmHg 45%
19:00 +24°C° 0.1 mm 3 m/s 705 mmHg 54%
20:00 +21°C° 0.1 mm 3 m/s 706 mmHg 63%
21:00 +19°C° 0.1 mm 2 m/s 706 mmHg 72%
22:00 +18°C° 0.2 mm 2 m/s 706 mmHg 77%
23:00 +17°C° 0.2 mm 2 m/s 706 mmHg 82%

Depois de amanhã, 17 Junho, Quinta-feira

Tempo Temperatura Precipitação Vento Pressão Humidade
00:00 +16°C° 0.2 mm 2 m/s 706 mmHg 87%
01:00 +16°C° 0.1 mm 2 m/s 705 mmHg 87%
02:00 +16°C° 0.1 mm 2 m/s 705 mmHg 87%
03:00 +15°C° 0.1 mm 2 m/s 705 mmHg 87%
04:00 +16°C° 0 mm 2 m/s 705 mmHg 84%
05:00 +16°C° 0 mm 1 m/s 705 mmHg 81%
06:00 +16°C° 0 mm 1 m/s 705 mmHg 79%
07:00 +18°C° 0 mm 2 m/s 706 mmHg 71%
08:00 +19°C° 0 mm 2 m/s 706 mmHg 63%
09:00 +20°C° 0 mm 3 m/s 706 mmHg 56%
10:00 +22°C° 0 mm 3 m/s 706 mmHg 51%
11:00 +23°C° 0 mm 4 m/s 706 mmHg 46%
12:00 +25°C° 0 mm 4 m/s 706 mmHg 41%
13:00 +26°C° 0 mm 5 m/s 706 mmHg 40%
14:00 +26°C° 0 mm 5 m/s 706 mmHg 39%
15:00 +26°C° 0 mm 5 m/s 706 mmHg 38%
16:00 +25°C° 0 mm 5 m/s 706 mmHg 39%
17:00 +25°C° 0 mm 5 m/s 706 mmHg 40%
18:00 +23°C° 0 mm 4 m/s 705 mmHg 41%
19:00 +22°C° 0 mm 4 m/s 705 mmHg 48%
20:00 +20°C° 0 mm 3 m/s 706 mmHg 55%
21:00 +19°C° 0 mm 2 m/s 706 mmHg 63%
22:00 +18°C° 0 mm 2 m/s 706 mmHg 66%
23:00 +18°C° 0 mm 1 m/s 706 mmHg 70%

18 Junho, Sexta-feira

Tempo Temperatura Precipitação Vento Pressão Humidade
00:00 +18°C° 0 mm 1 m/s 706 mmHg 74%
01:00 +16°C° 0 mm 1 m/s 705 mmHg 78%
02:00 +16°C° 0 mm 1 m/s 705 mmHg 81%
03:00 +15°C° 0 mm 1 m/s 705 mmHg 85%
04:00 +15°C° 0 mm 1 m/s 705 mmHg 84%
05:00 +15°C° 0 mm 0 m/s 705 mmHg 83%
06:00 +15°C° 0 mm 0 m/s 705 mmHg 82%
07:00 +19°C° 0 mm 1 m/s 705 mmHg 72%
08:00 +21°C° 0 mm 1 m/s 705 mmHg 62%
09:00 +23°C° 0 mm 1 m/s 706 mmHg 52%
10:00 +24°C° 0 mm 2 m/s 706 mmHg 46%
11:00 +26°C° 0 mm 2 m/s 706 mmHg 39%
12:00 +28°C° 0 mm 3 m/s 706 mmHg 33%
13:00 +28°C° 0 mm 3 m/s 705 mmHg 32%
14:00 +28°C° 0 mm 3 m/s 705 mmHg 31%
15:00 +28°C° 0 mm 3 m/s 705 mmHg 30%
16:00 +27°C° 0 mm 4 m/s 705 mmHg 33%
17:00 +27°C° 0 mm 4 m/s 705 mmHg 36%
18:00 +26°C° 0 mm 4 m/s 705 mmHg 39%
19:00 +24°C° 0.1 mm 3 m/s 705 mmHg 49%
20:00 +20°C° 0.1 mm 3 m/s 705 mmHg 59%
21:00 +18°C° 0.1 mm 2 m/s 705 mmHg 70%
22:00 +18°C° 0.9 mm 2 m/s 705 mmHg 73%
23:00 +17°C° 0.9 mm 2 m/s 706 mmHg 77%

19 Junho, Sábado

Tempo Temperatura Precipitação Vento Pressão Humidade
00:00 +16°C° 0.9 mm 2 m/s 706 mmHg 81%
01:00 +16°C° 0.9 mm 2 m/s 705 mmHg 81%
02:00 +16°C° 0.9 mm 2 m/s 705 mmHg 80%
03:00 +16°C° 0.9 mm 1 m/s 705 mmHg 80%
04:00 +16°C° 0.1 mm 1 m/s 705 mmHg 80%
05:00 +16°C° 0.1 mm 1 m/s 705 mmHg 79%
06:00 +16°C° 0.1 mm 1 m/s 706 mmHg 78%
07:00 +17°C° 0 mm 2 m/s 706 mmHg 72%
08:00 +18°C° 0 mm 2 m/s 706 mmHg 66%
09:00 +18°C° 0 mm 3 m/s 706 mmHg 59%
10:00 +20°C° 0 mm 3 m/s 706 mmHg 53%
11:00 +21°C° 0 mm 3 m/s 707 mmHg 47%
12:00 +23°C° 0 mm 4 m/s 707 mmHg 40%
13:00 +23°C° 0 mm 4 m/s 706 mmHg 37%
14:00 +25°C° 0 mm 5 m/s 706 mmHg 33%
15:00 +26°C° 0 mm 5 m/s 706 mmHg 30%
16:00 +25°C° 0 mm 5 m/s 706 mmHg 33%
17:00 +23°C° 0 mm 5 m/s 706 mmHg 36%
18:00 +21°C° 0 mm 6 m/s 706 mmHg 39%
19:00 +20°C° 0 mm 5 m/s 707 mmHg 47%
20:00 +19°C° 0 mm 4 m/s 707 mmHg 55%
21:00 +17°C° 0 mm 3 m/s 707 mmHg 63%
22:00 +17°C° 0 mm 3 m/s 707 mmHg 66%
23:00 +16°C° 0 mm 2 m/s 707 mmHg 69%

20 Junho, Domingo

Tempo Temperatura Precipitação Vento Pressão Humidade
00:00 +16°C° 0 mm 1 m/s 707 mmHg 72%
01:00 +16°C° 0 mm 1 m/s 707 mmHg 74%
02:00 +15°C° 0 mm 2 m/s 707 mmHg 77%
03:00 +15°C° 0 mm 2 m/s 707 mmHg 79%
04:00 +15°C° 0 mm 2 m/s 707 mmHg 79%
05:00 +15°C° 0 mm 2 m/s 707 mmHg 79%
06:00 +15°C° 0 mm 2 m/s 708 mmHg 79%
07:00 +16°C° 0 mm 3 m/s 708 mmHg 70%
08:00 +18°C° 0 mm 4 m/s 708 mmHg 62%
09:00 +19°C° 0 mm 4 m/s 708 mmHg 53%
10:00 +20°C° 0 mm 5 m/s 708 mmHg 48%
11:00 +22°C° 0 mm 5 m/s 708 mmHg 43%
12:00 +23°C° 0 mm 6 m/s 708 mmHg 38%
13:00 +23°C° 0 mm 6 m/s 708 mmHg 36%
14:00 +24°C° 0 mm 6 m/s 708 mmHg 34%
15:00 +24°C° 0 mm 6 m/s 708 mmHg 32%
16:00 +23°C° 0 mm 6 m/s 708 mmHg 33%
17:00 +23°C° 0 mm 6 m/s 708 mmHg 34%
18:00 +22°C° 0 mm 6 m/s 708 mmHg 36%
19:00 +20°C° 0 mm 5 m/s 708 mmHg 45%
20:00 +18°C° 0 mm 4 m/s 708 mmHg 53%
21:00 +16°C° 0 mm 3 m/s 709 mmHg 62%
22:00 +16°C° 0 mm 3 m/s 709 mmHg 66%
23:00 +15°C° 0 mm 2 m/s 708 mmHg 70%
Mostrar mais